Regional Weather Roundup
Issued by NWS Albany, NY

Home | Current Version | Previous Version | Graphics & Text | Print | Product List | Glossary Off
Versions: 1 2 3 4 5 6 7 8 9 10 11 12 13 14 15 16 17 18 19 20 21 22 23 24 25 26 27 28 29 30 31 32 33 34 35 36 37 38 39 40 41 42 43 44 45 46 47 48 49 50

000
ASUS41 KALY 030310
RWRALY

NEW YORK STATE HOURLY WEATHER ROUNDUP
NATIONAL WEATHER SERVICE ALBANY NY
1000 PM EST MON MAR 02 2015

NOTE: "FAIR" INDICATES FEW OR NO CLOUDS BELOW 12,000 FEET WITH NO
SIGNIFICANT WEATHER AND/OR NO OBSTRUCTIONS TO VISIBILITY.

NYZ032-033-038>043-046>054-057>066-NYZ062>081-030400-
EAST


CITY           SKY/WX    TMP DP  RH WIND       PRES   REMARKS
ALBANY         PTCLDY    23   7  50 NW13      30.32R WCI  11
GLENS FALLS    CLOUDY    23  12  62 NW12      30.30R WCI  12
POUGHKEEPSIE   CLEAR     26   8  46 NW9       30.31R WCI  17
NEWBURGH       CLEAR     23  12  63 NW14      30.30R WCI  11
MONTGOMERY     MOCLDY    24   9  52 NW10      30.31R WCI  14
WHITE PLAINS   CLEAR     25   8  48 NW15      30.28R WCI  13
ISLIP          PTCLDY    28  10  46 NW12      30.29R WCI  18
NEW YORK CITY  CLEAR     30  11  45 NW21G32   30.33R WCI  17
CENTRAL PARK   CLEAR     30   8  39 NW16G23   30.35R WCI  19
$$

NYZ005>009-017-018-044>046-055-056-030400-
CENTRAL


CITY           SKY/WX    TMP DP  RH WIND       PRES   REMARKS
FULTON         CLEAR     21  10  62 W10       30.38R WCI  10
SYRACUSE       PTCLDY    14   8  77 W8        30.37R WCI   3
ROME           CLEAR     12   5  73 NW6       30.37R WCI   3
ELMIRA         MOCLDY    21   9  59 NW7       30.38R WCI  12
BINGHAMTON     MOCLDY    17   9  70 NW10G20   30.28R WCI   5
MONTICELLO     CLOUDY    19   9  63 NW14G20   30.27R WCI   6
$$

NYZ026>034-041>043-030400-
NORTH


CITY           SKY/WX    TMP DP  RH WIND       PRES   REMARKS
WATERTOWN      CLEAR     18   6  59 W9        30.36R WCI   7
FORT DRUM      NOT AVBL
MASSENA        CLEAR     14   1  56 W6        30.34R WCI   5
SARANAC LAKE   CLEAR     11   2  67 CALM      30.19R
PLATTSBURGH    CLEAR     17   5  59 W3        30.30R
$$

NYZ001>004-010>016-019>021-030400-
WEST


CITY           SKY/WX    TMP DP  RH WIND       PRES   REMARKS
NIAGARA FALLS  PTCLDY    13   5  70 W8        30.41F WCI   2
BUFFALO        MOCLDY    18   7  62 SW7       30.41S WCI   9
DUNKIRK        PTCLDY    10   7  87 SW5       30.43F WCI   2
JAMESTOWN      PTCLDY    14  10  85 NW5       30.34S WCI   6
WELLSVILLE     MOCLDY    15   6  67 NW9       30.31S WCI   3
ROCHESTER      CLOUDY    20   8  60 W8        30.40S WCI  10
PENN YAN       CLEAR     20   7  57 W6        30.37S WCI  12
$$

             KEY
       WCI = WIND CHILL INDEX
       VSB = VISIBILITY
       HX  = HEAT INDEX
$$



USA.gov is the U.S. government's official web portal to all federal, state and local government web resources and services.